Regional Weather Roundup
Issued by NWS

Home | Current Version | Previous Version | Graphics & Text | Print | Product List | Glossary On
Versions: 1 2 3 4 5 6 7 8 9 10 11 12 13 14 15 16 17 18 19 20 21 22 23 24 25 26 27 28 29 30 31 32 33 34 35 36 37 38 39 40 41 42 43 44 45 46 47 48 49 50
000
ASUS43 KLMK 190302
RWRKY
KENTUCKY REGIONAL WEATHER ROUNDUP
NATIONAL WEATHER SERVICE LOUISVILLE KY
1000 PM EST THU DEC 18 2014

NOTE "FAIR" INDICATES FEW OR NO CLOUDS BELOW 12,000 FEET
WITH NO SIGNIFICANT WEATHER AND/OR OBSTRUCTIONS TO VISIBILITY.

KYZ001>023-026-027-061>063-070>075-190400-
WESTERN AND SOUTH CENTRAL KENTUCKY

CITY           SKY/WX    TMP DP  RH WIND       PRES   REMARKS
PADUCAH        CLOUDY    36  31  82 NE5       30.26R WCI  32
HENDERSON      CLOUDY    34  25  69 N3        30.27S
OWENSBORO      CLOUDY    33  28  82 N8        30.27S WCI  26
HOPKINSVILLE   CLOUDY    34  29  82 N3        30.24S
BOWLING GREEN  CLOUDY    35  26  69 NE3       30.25S
GLASGOW        NOT AVBL
$$

KYZ024-025-028>034-038-045-046-053-190400-
NORTH CENTRAL KENTUCKY

CITY           SKY/WX    TMP DP  RH WIND       PRES   REMARKS
LOUISVILLE/SDF CLOUDY    33  24  69 N6        30.25S WCI  28
LOUISVILLE/LOU CLOUDY    32  24  72 NE3       30.26S
FORT KNOX      CLOUDY    31  25  78 NW2       30.23R
$$

KYZ035>037-039>044-047>052-055>060-089>105-190400-
NORTHEAST KENTUCKY

CITY           SKY/WX    TMP DP  RH WIND       PRES   REMARKS
LEXINGTON      CLOUDY    30  24  78 N5        30.22S WCI  25
COVINGTON      CLOUDY    29  20  69 NW3       30.23R
FRANKFORT      CLOUDY    30  23  75 VRB3      30.23R
$$

KYZ054-064>069-076>088-106>120-190400-
SOUTHEAST KENTUCKY

CITY           SKY/WX    TMP DP  RH WIND       PRES   REMARKS
JACKSON        CLOUDY    31  24  75 NW3       30.18S
LONDON         CLOUDY    34  24  67 NW6       30.20R WCI  29
SOMERSET       NOT AVBL
MIDDLESBORO    CLOUDY    37  29  72 CALM      30.18R
MONTICELLO     CLOUDY    35  29  79 CALM      30.24S
$$




USA.gov is the U.S. government's official web portal to all federal, state and local government web resources and services.